Location: Unspecified
(0.0000°N, 0.0000°E)
Time: 09:02:16
(UTC+00:00)

deb NOAA 5 - Pass Details

Date: 23 February 2026
Orbit: 747 x 1048 km, 102.9° (Epoch: 14 March)

Event Time Altitude Azimuth Distance (km) Brightness Sun altitude
Rises 05:09:51 0° 131° (SE) 3,470 ? -15.6°
Reaches altitude 10° 05:12:58 10° 112° (ESE) 2,587 ? -14.9°
Maximum altitude 05:16:44 18° 71° (ENE) 2,132 ? -14.0°
Drops below altitude 10° 05:20:38 10° 30° (NNE) 2,714 ? -13.0°
Sets 05:23:59 0° 13° (NNE) 3,709 ? -12.2°
